Location: Cicognara
(44.9500°N, 10.4667°E)
Time: 04:53:07
(UTC+00:00)

Resurs 01 Rocket - Pass Details

Date: 20 June 2021
Orbit: 635 x 643 km, 97.9° (Epoch: 28 July)

Event Time Altitude Azimuth Distance (km) Brightness Sun altitude
Exits shadow 20:59:43 - 208° (SSW) 2,758 4.6 -14.5°
Reaches altitude 10° 21:02:06 10° 226° (SW) 2,018 4.1 -14.7°
Maximum altitude 21:05:04 18° 268° (W) 1,577 4.0 -15.0°
Drops below altitude 10° 21:08:03 10° 311° (NW) 2,029 5.4 -15.3°
Sets 21:10:55 0° 331° (NNW) 2,944 6.9 -15.6°
